Monatsübersicht für Januar 2019

 
Wetter
Zeitraffer
Tageslänge (hh:mm)
Höchsttemperatur in °C
Uhrzeit
Tiefsttemperatur in °C
Uhrzeit
Luftfeuchte (max., in %)
Uhrzeit
Luftfeuchte (min., in %)
Uhrzeit
Luftdruck (max., in hPa)
Uhrzeit
Luftdruck (min., in hPa)
Uhrzeit
Luftdruck (Ø, in hPa)
Regenrate (max, mm/h)
Uhrzeit
Niederschlag in mm
Verdunstung in mm
Solar in W/m² (Ø)
Solar in W/m² (max.)
UV-Index (max.)
Sonnenscheindauer (hh:mm)
Windrichtung (Ø)
Windstärke (Ø in km/h)
Windstärke (Ø in bft)
Windböe (max., in km/h)
Uhrzeit
Windböe (max., in bft)
Uhrzeit
Taupunkt (max., in °C)
Uhrzeit
Taupunkt (min., in °C)
Uhrzeit
Windchill (min., in °C)
Uhrzeit
Gewitterindex (max.)
Uhrzeit
01
07:51
8.4
12:45 Uhr
3.2
23:35 Uhr

96
00:00 Uhr
71
21:25 Uhr
1026.3
00:00 Uhr

1011.9
17:40 Uhr
1016.5
2,400
03:15 Uhr
2,400
0.686
61
247
11:55 Uhr
0.0
00:00 Uhr

01:05:00
16,4
3
53,1
12:05 Uhr

7
7.2
00:00 Uhr
-0.1
21:25 Uhr
-6.8
23:25 Uhr
0
00:00 Uhr
02
07:52
4.3
13:35 Uhr
-2.7
23:40 Uhr

89
09:50 Uhr
48
13:40 Uhr
1031.0
21:55 Uhr

1013.7
00:05 Uhr
1023.1
2,400
05:30 Uhr
0,600
1.016
87
213
12:35 Uhr
0.0
00:00 Uhr

01:55:00
12,6
2
43,5
07:20 Uhr

6
0.1
00:00 Uhr
-8.4
18:55 Uhr
-8.2
08:05 Uhr
0
00:00 Uhr
03
07:53
1.7
13:10 Uhr
-4.2
23:50 Uhr

92
21:15 Uhr
75
00:00 Uhr
1034.8
21:00 Uhr

1030.8
06:05 Uhr
1032.5
0,000
00:00 Uhr
0,000
0.330
57
194
12:25 Uhr
0.0
00:00 Uhr

00:05:00
5,1
1
25,7
08:00 Uhr

4
-0.5
14:15 Uhr
-6.6
00:00 Uhr
-7.0
06:10 Uhr
0
00:00 Uhr
04
07:54
4.6
23:45 Uhr
-4.1
00:00 Uhr

96
12:05 Uhr
93
00:00 Uhr
1034.2
00:30 Uhr

1020.9
23:40 Uhr
1027.4
2,400
09:50 Uhr
0,800
0.000
17
34
12:45 Uhr
0.0
00:00 Uhr

00:00:00
7,4
2
30,6
13:20 Uhr

5
3.8
23:35 Uhr
-5.0
00:00 Uhr
-4.1
00:00 Uhr
0
00:00 Uhr
05
07:56
7.4
11:15 Uhr
1.5
22:30 Uhr

96
01:40 Uhr
88
13:10 Uhr
1024.6
23:45 Uhr

1016.1
06:45 Uhr
1020.1
2,400
00:30 Uhr
1,400
0.203
44
157
10:50 Uhr
0.0
00:00 Uhr

00:25:00
7,6
2
29,0
01:15 Uhr

4
6.0
11:15 Uhr
0.3
22:20 Uhr
-1.6
01:20 Uhr
0
00:00 Uhr
06
07:58
3.9
13:25 Uhr
-0.6
17:30 Uhr

95
08:25 Uhr
77
13:15 Uhr
1029.9
20:40 Uhr

1024.6
00:10 Uhr
1027.9
0,000
00:00 Uhr
0,000
0.229
78
254
11:30 Uhr
0.0
00:00 Uhr

01:25:00
2,3
1
17,7
02:05 Uhr

3
1.0
01:05 Uhr
-1.8
17:25 Uhr
-0.6
17:30 Uhr
0
00:00 Uhr
07
08:00
5.2
14:20 Uhr
-0.7
00:55 Uhr

97
12:05 Uhr
93
00:00 Uhr
1029.7
00:20 Uhr

1013.7
23:50 Uhr
1025.4
2,400
08:25 Uhr
3,200
0.076
29
60
13:35 Uhr
0.0
00:00 Uhr

00:00:00
3,6
1
25,7
21:45 Uhr

4
4.8
14:55 Uhr
-1.7
00:55 Uhr
-0.7
00:55 Uhr
0
00:00 Uhr
08
08:01
6.1
13:50 Uhr
2.0
23:50 Uhr

95
00:00 Uhr
84
17:55 Uhr
1013.4
00:00 Uhr

995.7
13:30 Uhr
1001.2
4,800
10:30 Uhr
7,000
0.356
24
90
13:50 Uhr
0.0
00:00 Uhr

00:00:00
13,8
3
45,1
17:50 Uhr

6
4.9
03:40 Uhr
1.0
23:00 Uhr
-5.4
22:30 Uhr
0
00:00 Uhr
09
08:04
2.8
21:30 Uhr
0.6
09:50 Uhr

96
20:40 Uhr
92
15:20 Uhr
1016.8
23:40 Uhr

998.5
00:00 Uhr
1006.5
2,400
00:30 Uhr
5,400
0.152
33
61
10:40 Uhr
0.0
00:00 Uhr

00:00:00
12,0
2
38,6
07:20 Uhr

5
2.1
21:30 Uhr
-0.2
09:35 Uhr
-6.5
08:05 Uhr
0
00:00 Uhr
10
08:05
2.7
12:55 Uhr
-0.6
21:00 Uhr

95
00:05 Uhr
77
16:15 Uhr
1024.5
19:30 Uhr

1016.9
00:00 Uhr
1022.3
2,400
00:15 Uhr
0,600
0.305
84
259
12:50 Uhr
0.0
00:00 Uhr

01:30:00
6,0
1
27,4
01:55 Uhr

4
1.3
00:05 Uhr
-3.1
16:45 Uhr
-4.2
01:05 Uhr
0
00:00 Uhr
11
5.3
18:50 Uhr
-0.4
00:00 Uhr

97
16:15 Uhr
87
00:55 Uhr
1023.9
00:00 Uhr

1012.2
17:10 Uhr
1017.3
2,400
09:50 Uhr
1,200
0.051
21
52
13:15 Uhr
0.0
00:00 Uhr

00:00:00
6,9
1
24,1
10:30 Uhr

4
4.7
18:05 Uhr
-2.2
00:55 Uhr
-3.9
10:35 Uhr
0
00:00 Uhr
13
08:12
8.0
17:25 Uhr
5.0
05:05 Uhr

96
15:40 Uhr
88
20:35 Uhr
1002.5
00:00 Uhr

986.2
19:35 Uhr
995.1
9,600
18:50 Uhr
7,400
0.229
23
47
11:15 Uhr
0.0
00:00 Uhr

00:00:00
12,9
2
51,5
20:55 Uhr

6
7.0
16:30 Uhr
3.6
03:50 Uhr
-4.9
21:00 Uhr
0
00:00 Uhr
14
08:14
5.5
00:00 Uhr
0.1
19:30 Uhr

88
00:00 Uhr
54
12:40 Uhr
1008.9
23:35 Uhr

987.3
00:00 Uhr
1000.0
2,400
00:30 Uhr
0,200
1.067
85
306
12:15 Uhr
0.0
00:00 Uhr

02:15:00
16,9
3
57,9
13:20 Uhr

7
3.7
00:00 Uhr
-5.2
13:00 Uhr
-9.1
13:20 Uhr
0
00:00 Uhr
15
08:17
6.4
20:25 Uhr
0.2
00:05 Uhr

93
21:55 Uhr
80
00:00 Uhr
1010.4
05:20 Uhr

1005.9
19:40 Uhr
1008.4
2,400
10:00 Uhr
2,600
0.584
40
116
11:45 Uhr
0.0
00:00 Uhr

00:00:00
15,1
3
45,1
21:50 Uhr

6
5.3
22:25 Uhr
-2.9
00:10 Uhr
-7.3
06:35 Uhr
0
00:00 Uhr


 
Wetter
Zeitraffer
Tageslänge (hh:mm)
Höchsttemperatur in °C
Uhrzeit
Tiefsttemperatur in °C
Uhrzeit
Luftfeuchte (max., in %)
Uhrzeit
Luftfeuchte (min., in %)
Uhrzeit
Luftdruck (max., in hPa)
Uhrzeit
Luftdruck (min., in hPa)
Uhrzeit
Luftdruck (Ø, in hPa)
Regenrate (max, mm/h)
Uhrzeit
Niederschlag in mm
Verdunstung in mm
Solar in W/m² (Ø)
Solar in W/m² (max.)
UV-Index (max.)
Sonnenscheindauer (hh:mm)
Windrichtung (Ø)
Windstärke (Ø in km/h)
Windstärke (Ø in bft)
Windböe (max., in km/h)
Uhrzeit
Windböe (max., in bft)
Uhrzeit
Taupunkt (max., in °C)
Uhrzeit
Taupunkt (min., in °C)
Uhrzeit
Windchill (min., in °C)
Uhrzeit
Gewitterindex (max.)
Uhrzeit
16
08:19
7.2
04:25 Uhr
3.8
23:50 Uhr

93
00:00 Uhr
77
21:40 Uhr
1008.3
04:35 Uhr

1001.0
23:35 Uhr
1006.2
2,400
02:25 Uhr
0,200
0.559
24
65
13:35 Uhr
0.0
00:00 Uhr

00:00:00
10,8
2
41,8
02:50 Uhr

6
5.7
02:35 Uhr
0.7
23:25 Uhr
-1.3
01:50 Uhr
0
00:00 Uhr
17
08:22
6.9
14:20 Uhr
2.8
23:40 Uhr

90
20:25 Uhr
70
15:25 Uhr
1002.9
23:50 Uhr

998.0
05:00 Uhr
999.3
2,400
18:05 Uhr
1,000
0.762
69
275
13:45 Uhr
0.0
00:00 Uhr

01:40:00
9,4
2
41,8
23:50 Uhr

6
2.7
09:05 Uhr
-0.2
23:50 Uhr
-5.0
23:50 Uhr
0
00:00 Uhr
18
08:25
3.2
12:35 Uhr
-2.4
08:15 Uhr

92
02:25 Uhr
68
13:50 Uhr
1021.0
23:30 Uhr

1003.1
00:00 Uhr
1014.7
2,400
02:25 Uhr
0,800
0.711
176
294
12:10 Uhr
0.0
00:00 Uhr

07:30:00
7,3
2
37,0
00:25 Uhr

5
0.1
00:55 Uhr
-4.2
08:25 Uhr
-6.1
03:40 Uhr
0
00:00 Uhr
19
08:27
4.0
14:15 Uhr
-5.1
08:10 Uhr

93
08:45 Uhr
74
13:30 Uhr
1021.5
09:40 Uhr

1019.4
23:40 Uhr
1020.4
0,000
00:00 Uhr
0,000
0.381
118
248
12:30 Uhr
0.0
00:00 Uhr

04:15:00
1,5
0
14,5
00:05 Uhr

3
0.3
12:55 Uhr
-6.1
08:10 Uhr
-5.1
08:10 Uhr
0
00:00 Uhr
20
08:30
0.3
14:00 Uhr
-7.3
07:25 Uhr

93
00:50 Uhr
82
12:05 Uhr
1024.0
22:50 Uhr

1018.5
05:10 Uhr
1020.5
0,000
00:00 Uhr
0,000
0.330
120
269
11:15 Uhr
0.0
00:00 Uhr

03:25:00
2,5
1
14,5
13:45 Uhr

3
-2.2
13:10 Uhr
-8.5
07:25 Uhr
-7.3
07:25 Uhr
0
00:00 Uhr
21
08:33
-0.4
14:20 Uhr
-4.6
05:15 Uhr

93
05:55 Uhr
79
14:25 Uhr
1024.2
02:00 Uhr

1018.4
22:50 Uhr
1021.9
0,000
00:00 Uhr
0,000
0.356
123
399
12:20 Uhr
0.0
00:00 Uhr

03:50:00
3,6
1
19,3
13:25 Uhr

3
-3.4
12:25 Uhr
-5.7
05:05 Uhr
-6.6
10:25 Uhr
0
00:00 Uhr
22
08:37
0.0
14:05 Uhr
-5.2
23:45 Uhr

91
00:00 Uhr
70
14:30 Uhr
1018.3
00:00 Uhr

1007.6
23:35 Uhr
1012.7
0,000
00:00 Uhr
0,000
0.533
129
256
11:25 Uhr
0.0
00:00 Uhr

04:10:00
4,8
1
20,9
22:20 Uhr

4
-4.2
13:00 Uhr
-7.1
23:40 Uhr
-11.0
23:15 Uhr
0
00:00 Uhr
23
08:39
-3.9
23:50 Uhr
-7.6
06:30 Uhr

91
01:55 Uhr
79
23:15 Uhr
1009.7
23:40 Uhr

1005.2
10:30 Uhr
1006.7
0,000
00:00 Uhr
0,000
0.432
90
250
11:40 Uhr
0.0
00:00 Uhr

02:05:00
11,3
2
30,6
08:10 Uhr

5
-6.6
10:30 Uhr
-9.0
06:25 Uhr
-16.4
13:40 Uhr
0
00:00 Uhr
24
08:42
-3.7
02:35 Uhr
-5.5
13:10 Uhr

83
12:50 Uhr
77
01:40 Uhr
1015.9
22:35 Uhr

1009.8
00:00 Uhr
1013.0
0,000
00:00 Uhr
0,000
0.381
44
97
11:05 Uhr
0.0
00:00 Uhr

00:00:00
8,0
2
25,7
09:20 Uhr

4
-6.8
04:40 Uhr
-8.2
13:55 Uhr
-11.2
09:20 Uhr
0
00:00 Uhr
25
08:45
-2.8
13:30 Uhr
-5.2
08:50 Uhr

89
09:20 Uhr
71
14:20 Uhr
1016.2
08:20 Uhr

1009.8
23:50 Uhr
1014.6
0,000
00:00 Uhr
0,000
0.203
76
282
11:30 Uhr
0.0
00:00 Uhr

00:40:00
2,1
1
16,1
13:55 Uhr

3
-5.5
11:20 Uhr
-7.7
14:40 Uhr
-5.2
08:50 Uhr
0
00:00 Uhr
26
08:49
2.4
14:15 Uhr
-3.4
00:00 Uhr

96
11:35 Uhr
77
00:00 Uhr
1009.5
00:00 Uhr

998.4
23:35 Uhr
1002.8
2,400
11:50 Uhr
3,200
0.127
44
102
14:05 Uhr
0.0
00:00 Uhr

00:00:00
3,3
1
17,7
03:45 Uhr

3
1.8
14:10 Uhr
-6.8
00:00 Uhr
-3.4
00:00 Uhr
0
00:00 Uhr
27
08:52
4.8
16:25 Uhr
2.3
00:00 Uhr

96
00:00 Uhr
88
17:40 Uhr
998.3
00:00 Uhr

986.7
16:15 Uhr
990.3
2,400
00:50 Uhr
0,800
0.178
51
166
11:45 Uhr
0.0
00:00 Uhr

00:10:00
4,6
1
17,7
10:05 Uhr

3
3.5
14:30 Uhr
1.4
06:45 Uhr
1.7
08:45 Uhr
0
00:00 Uhr
28
08:55
5.6
12:45 Uhr
1.4
08:15 Uhr

94
08:40 Uhr
73
12:35 Uhr
995.3
23:45 Uhr

987.4
00:00 Uhr
991.3
2,400
02:20 Uhr
2,400
0.457
131
305
12:25 Uhr
0.0
00:00 Uhr

03:45:00
3,6
1
22,5
04:45 Uhr

4
2.8
03:10 Uhr
0.4
08:15 Uhr
-1.8
05:45 Uhr
0
00:00 Uhr
29
08:58
2.7
14:30 Uhr
-1.9
08:45 Uhr

94
00:00 Uhr
85
14:35 Uhr
1004.7
18:10 Uhr

995.3
00:05 Uhr
1002.3
2,400
02:25 Uhr
0,600
0.254
64
253
14:20 Uhr
0.0
00:00 Uhr

00:25:00
5,5
1
30,6
04:00 Uhr

5
0.9
00:00 Uhr
-3.3
08:30 Uhr
-6.4
05:55 Uhr
0
00:00 Uhr
30
09:02
2.4
12:30 Uhr
-1.7
03:00 Uhr

94
03:30 Uhr
68
14:20 Uhr
1003.8
00:00 Uhr

999.7
15:55 Uhr
1001.3
0,000
00:00 Uhr
0,000
0.838
149
311
11:55 Uhr
0.5
11:15 Uhr

06:00:00
10,4
2
40,2
13:15 Uhr

5
-1.2
00:00 Uhr
-3.6
18:35 Uhr
-7.7
17:50 Uhr
0
00:00 Uhr
31
09:05
2.6
13:55 Uhr
-1.5
02:45 Uhr

88
22:10 Uhr
77
13:10 Uhr
1001.7
10:50 Uhr

999.6
00:40 Uhr
1000.8
0,000
00:00 Uhr
0,000
0.533
107
331
12:30 Uhr
0.5
11:55 Uhr

02:00:00
6,3
1
20,9
00:15 Uhr

4
-1.0
13:35 Uhr
-3.7
02:45 Uhr
-6.2
01:10 Uhr
0
00:00 Uhr